Location: Bishop's University Astronomical Observatory
(45.3661°N, 71.8475°W)
Time: 10:51:53
(UTC-04:00)

CZ-4C R/B - Visible Passes

Search period start: 03 May 2015 00:00
Search period end: 13 May 2015 00:00
Orbit: 772 x 1231 km, 63.4° (Epoch: 02 May)

Date Brightness Start Highest point End Pass type
(mag) Time Alt. Az. Time Alt. Az. Time Alt. Az.
03 May 3.7 01:38:44 22° W 01:41:29 32° NW 01:47:05 10° NNE visible
03 May 4.8 03:28:26 10° NW 03:32:10 16° N 03:36:04 10° NNE visible
03 May 3.9 22:40:18 18° E 22:40:18 18° E 22:42:37 10° ENE visible
04 May 2.4 00:25:26 62° W 00:26:04 67° NW 00:32:13 10° NE visible
04 May 4.5 02:11:24 10° WNW 02:15:54 22° NNW 02:20:41 10° NNE visible
04 May 4.9 04:03:18 10° NNW 04:06:58 16° N 04:10:54 10° NE visible
04 May 2.6 23:12:03 46° E 23:12:03 46° E 23:17:04 10° NE visible
05 May 3.6 00:57:10 23° W 01:00:01 37° NW 01:05:47 10° NNE visible
05 May 4.8 02:46:42 10° NW 02:50:33 17° N 02:54:36 10° NNE visible
05 May 5.0 04:37:26 10° NNW 04:41:45 18° NNE 04:46:27 10° ENE visible
05 May 3.8 21:58:31 16° E 21:58:31 16° E 22:00:51 10° ENE visible
05 May 2.2 23:43:37 59° SW 23:44:44 80° NW 23:50:54 10° NE visible
06 May 4.4 01:29:41 10° W 01:34:21 24° NNW 01:39:21 10° NNE visible
06 May 5.0 03:21:43 10° NW 03:25:21 15° N 03:29:12 10° NE visible
06 May 2.6 22:29:52 40° ESE 22:30:04 40° ESE 22:35:38 10° NE visible
07 May 3.3 00:14:57 20° WSW 00:18:35 42° NW 00:24:29 10° NNE visible
07 May 4.9 02:04:58 10° NW 02:08:57 18° NNW 02:13:09 10° NNE visible
07 May 5.1 03:56:02 10° NNW 04:00:09 17° NNE 04:04:37 10° NE visible
07 May 3.8 21:15:49 14° ESE 21:15:53 14° ESE 21:18:51 10° ENE visible
07 May 2.1 23:00:52 34° SSW 23:03:26 86° SE 23:09:34 10° NE visible
08 May 4.3 00:47:59 10° W 00:52:50 26° NNW 00:58:02 10° NNE visible
08 May 5.0 02:40:07 10° NW 02:43:44 15° N 02:47:33 10° NNE visible
08 May 5.0 04:29:47 10° NNW 04:34:49 23° NNE 04:40:21 10° ENE visible
08 May 2.8 21:46:12 21° SSE 21:48:53 33° ESE 21:54:08 10° NE visible
08 May 3.1 23:31:46 10° WSW 23:37:10 49° NW 23:43:12 10° NNE visible
09 May 4.9 01:23:13 10° WNW 01:27:22 19° NNW 01:31:45 10° NNE visible
09 May 5.1 03:14:37 10° NNW 03:18:33 17° N 03:22:47 10° NE visible
09 May 3.9 20:33:47 10° ESE 20:34:46 11° ESE 20:36:09 10° E visible
09 May 2.1 22:16:42 10° SSW 22:22:08 72° SE 22:28:13 10° NE visible
10 May 4.2 00:06:20 10° W 00:11:19 29° NNW 00:16:44 10° NNE visible
10 May 5.1 01:58:28 10° NW 02:02:07 16° N 02:05:57 10° NNE visible
10 May 5.1 03:48:28 10° NNW 03:53:16 21° NNE 03:58:30 10° ENE visible
10 May 3.1 21:03:17 10° SSE 21:07:42 27° ESE 21:12:34 10° ENE visible
10 May 2.8 22:50:19 10° SW 22:55:47 58° NW 23:01:54 10° NNE visible
11 May 4.8 00:41:28 10° WNW 00:45:47 20° NNW 00:50:23 10° NNE visible
11 May 5.2 02:33:09 10° NNW 02:36:56 16° N 02:40:59 10° NE visible
11 May 4.8 04:22:00 10° NNW 04:27:45 30° NNE 04:34:05 10° E visible
11 May 2.2 21:35:33 10° SSW 21:40:53 59° ESE 21:46:50 10° NE visible
11 May 4.0 23:24:43 10° W 23:29:50 33° NW 23:35:26 10° NNE visible
12 May 5.2 01:16:45 10° NW 01:20:30 16° N 01:24:25 10° NNE visible
12 May 5.2 03:07:08 10° NNW 03:11:41 19° NNE 03:16:38 10° ENE visible
12 May 2.6 22:08:55 10° SW 22:14:25 69° NW 22:20:35 10° NE visible
